HULIANWANG DIGUI-100 (66416 NORAD) Tracking and Keplerian Element Data

This shows tracking and keplerian element data for the satellite.

Feedback or suggestion? Click here.




ElementValue
Catalog66416
NameHULIANWANG DIGUI-100
Epoch Orbit550
Epoch Day352.73687132
Epoch Year2025
RAAN237.3673
Inclination50.0033
Eccentricity0.0001351
Argument of Perigee16.4338
Mean Anonmoly343.6614
Mean Motion14.12408915
Decay Rate6.8E-07
L11 66416U 25258E 25352.73687132 .00000068 00000+0 11988-3 0 9992
L22 66416 50.0033 237.3673 0001351 16.4338 343.6614 14.12408915 5504



Live tracking and technical data element details for HULIANWANG DIGUI-100 (NORAD 66416). HULIANWANG DIGUI-100 can be tracked NOW for your location showing map with azimuth and elevation plus other details from your city location.







IsCatalogInMostPopularTable: catalog: 66416, numindb: 9
Update: records affected: 1



GetName: 66416 HULIANWANG DIGUI-100

Hit Count: updated at: Wed, 15 Apr 2026 01:26:57 GMT